Torna al catalogo

COSMOS 2251 DEB

AttivoLEO
NORAD 34389·DEBRIS·🇷🇺 Russia

Lanciato Jun 16, 1993 da Plesetsk Cosmodrome

Loading…

Prossimi Passaggi (prossime 24 ore)

TLE

AggiornatoSource: Space-Track

Epoca: Sep 14, 2026, 12:14 UTC

1 34389U 93036QE  26257.50974410  .00000661  00000-0  20801-3 0  9997
2 34389  74.0165  98.1728 0029061 147.4473 229.8389 14.42107678919870

Traccia COSMOS 2251 DEB in tempo reale con AllMySat

Download on the App Store